Theta_e
313 315 315 315 316 316 315 317 318 319 318 318 319 319 317 318 318 318 319 319 318 320 321 320 321 322 323 323 325 325 325 326 327 329 330 330 330 331 331 331 332 333 333 333 334 334 334 332 334 337 339 337 336 337
312 314 313 314 315 315 315 317 319 318 318 318 318 318 317 317 318 318 317 319 319 317 321 319 318 319 320 321 321 322 324 326 327 329 330 330 331 330 331 331 330 330 331 334 333 335 331 329 332 334 332 331 331 330
313 313 313 313 313 314 315 317 318 318 318 318 318 318 316 317 318 318 318 318 318 319 321 321 321 319 319 318 319 322 323 323 324 324 325 327 329 328 329 329 329 328 327 328 329 327 327 326 328 329 329 328 327 326
313 313 313 313 313 314 315 317 318 317 317 317 317 317 316 317 317 317 317 317 317 319 322 322 318 320 318 318 319 319 320 321 322 323 324 326 326 324 325 327 328 325 327 326 327 326 324 323 324 324 326 326 325 325
313 313 313 313 314 315 317 318 318 316 315 316 316 317 315 317 317 317 317 316 317 318 321 320 319 318 316 317 317 317 318 321 323 324 325 326 324 324 324 325 325 324 325 325 326 324 325 325 324 324 324 324 325 326
312 312 312 313 314 314 315 316 316 315 315 315 316 316 314 317 317 317 318 317 318 315 317 321 319 318 316 319 319 318 320 320 321 323 324 324 323 323 325 327 326 324 324 324 325 324 324 324 324 324 326 326 325 325
312 312 312 313 313 314 314 314 314 314 314 313 314 314 313 317 317 317 317 317 316 313 316 319 321 317 318 320 319 319 320 322 323 324 324 324 324 323 326 327 325 324 324 325 325 325 325 326 327 326 325 325 325 325
308 310 312 312 312 313 313 312 312 312 312 312 312 312 316 317 316 316 315 313 314 313 314 320 321 318 319 323 324 322 321 321 322 323 324 324 325 325 327 325 325 324 325 325 327 326 326 325 325 325 325 325 325 325
305 307 311 311 311 312 311 311 311 311 311 310 310 315 316 316 315 316 314 315 315 313 318 319 321 322 317 320 323 324 324 325 324 325 325 325 325 327 326 325 326 325 325 325 326 325 325 325 325 325 325 325 325 325
304 305 309 310 310 310 310 310 309 310 309 311 314 314 316 315 314 316 315 316 314 315 316 318 318 320 317 320 323 325 325 326 328 326 326 327 326 324 325 327 327 326 326 326 326 326 325 325 325 325 325 325 325 325
303 304 307 309 309 309 309 309 308 309 311 313 315 315 315 316 316 317 318 317 317 316 317 317 317 320 318 321 322 325 327 325 326 327 325 325 326 328 327 327 327 327 326 326 325 325 325 325 325 326 325 326 325 325
302 303 305 307 308 308 307 307 309 311 313 314 314 313 315 316 318 318 318 318 317 318 319 320 320 319 320 319 322 324 325 324 325 323 325 326 330 328 327 327 326 326 326 326 325 325 325 325 326 326 326 326 326 326
301 302 304 306 306 307 306 307 310 312 313 313 312 313 316 317 319 318 318 319 318 319 320 321 323 322 321 321 323 324 324 324 323 325 325 327 328 327 326 326 326 326 326 325 325 325 325 326 326 326 325 326 325 325
301 301 302 304 305 305 306 308 311 312 312 312 312 311 318 319 318 319 319 319 319 321 321 321 323 323 323 324 323 325 324 324 326 327 326 330 326 326 327 326 326 325 325 325 325 325 326 326 325 325 324 324 324 324
301 301 302 303 304 305 306 309 311 312 312 312 312 317 318 317 317 317 317 317 317 317 317 320 322 321 322 323 324 324 325 326 326 327 329 325 325 325 324 324 325 326 326 326 326 325 325 324 324 323 324 323 324 325
301 301 302 303 303 305 308 310 310 311 312 311 311 315 316 317 317 317 317 317 317 316 317 320 321 322 322 323 324 325 325 325 327 325 324 324 324 324 325 326 326 326 325 325 325 324 324 324 322 322 323 323 324 325
301 302 303 303 304 305 308 309 310 310 311 310 311 313 316 317 317 317 316 317 317 318 321 320 321 321 321 323 324 324 326 326 324 324 324 324 324 325 325 326 326 325 324 325 324 323 323 323 323 322 322 323 323 323
301 303 303 304 304 305 306 308 309 310 310 310 312 315 315 316 316 316 316 317 317 317 319 321 320 321 321 322 323 324 323 323 322 321 321 321 324 325 326 326 325 325 325 324 323 323 322 321 322 322 323 323 325 324
302 303 304 306 305 307 307 308 309 310 310 311 313 314 315 315 315 315 316 316 316 317 317 318 320 321 321 319 319 319 319 320 320 319 319 320 323 325 326 326 325 325 325 324 323 322 320 320 321 321 322 325 325 325
303 303 304 306 306 309 309 309 309 309 312 313 313 314 314 315 315 315 315 315 315 316 316 317 318 318 319 319 319 319 321 321 319 318 318 318 320 323 325 325 324 324 323 322 322 320 319 319 319 319 321 323 323 325
303 305 306 306 306 308 309 309 309 310 311 312 313 314 315 315 315 315 315 315 315 316 317 316 316 316 316 317 317 319 319 320 319 317 317 318 320 324 325 324 323 322 321 322 320 319 318 317 317 318 318 320 321 322
305 306 307 307 307 307 309 309 310 310 310 313 314 314 314 315 315 316 316 315 315 315 314 314 315 315 315 316 316 317 316 316 316 318 317 320 324 325 324 323 321 322 321 319 319 319 318 318 317 317 317 316 317 318
306 307 307 307 308 308 310 310 310 310 312 313 314 315 316 316 316 316 317 316 316 316 316 317 317 317 317 317 317 317 317 318 317 317 320 321 325 324 322 321 321 321 320 318 317 318 318 318 318 318 317 316 316 315
307 307 307 308 308 309 310 310 310 312 311 313 314 316 318 319 317 318 321 321 321 321 320 320 322 322 320 319 317 317 317 317 318 320 320 324 323 321 321 321 320 319 318 317 316 316 316 316 317 318 317 316 316 316
306 307 308 308 309 310 310 311 311 312 314 315 316 317 318 317 320 322 323 322 321 320 321 324 321 319 320 319 319 321 318 321 322 323 322 321 320 320 320 320 319 319 317 318 317 316 315 314 312 313 314 314 313 311
309 308 309 310 310 311 312 314 315 315 316 316 317 316 318 320 320 321 321 321 320 322 322 321 322 323 320 323 322 323 322 321 320 316 318 318 318 319 319 318 318 318 318 317 317 316 313 313 313 311 309 308 308 309
309 311 311 311 312 313 314 315 315 314 316 318 319 319 319 318 315 316 318 321 320 320 320 321 323 321 320 319 318 318 317 318 318 318 319 319 318 317 317 317 317 317 317 317 317 316 314 313 313 312 312 311 310 309
310 313 314 313 313 312 314 316 318 318 318 318 318 319 317 317 321 318 319 320 319 320 318 318 319 316 318 318 319 319 320 320 320 319 318 318 318 318 317 317 316 316 317 316 316 316 315 314 313 313 312 312 311 311
312 313 314 314 313 315 316 317 317 317 315 315 318 322 321 320 319 318 319 321 322 322 321 320 320 320 320 321 320 319 319 318 318 319 318 317 317 317 317 317 317 317 316 315 314 315 315 315 314 313 313 313 312 311
315 314 315 316 317 318 316 315 315 315 315 318 321 322 321 321 320 322 323 323 322 322 320 319 319 319 319 319 319 320 319 319 318 318 319 318 318 317 317 317 317 317 316 315 315 313 313 314 314 314 314 314 313 313
314 314 315 316 317 318 319 318 318 318 321 323 323 322 322 322 322 322 322 323 323 322 321 320 319 319 319 319 319 319 318 318 318 318 318 318 318 318 319 318 318 317 317 316 316 316 316 316 316 315 314 314 313 313
315 316 316 317 319 320 319 321 322 322 323 324 323 322 322 322 321 324 322 322 322 322 321 321 320 320 320 320 320 319 319 320 319 319 318 318 318 318 318 318 318 317 318 317 316 318 317 317 317 317 316 316 315 314
316 316 317 319 321 322 322 322 322 321 323 322 323 322 323 322 322 323 323 321 322 323 323 323 323 322 321 322 321 319 320 319 319 319 319 319 318 318 319 319 319 317 317 318 318 316 317 318 317 316 317 317 315 314
Wind_Speed
23 21 19 17 17 15 14 13 12 10 11 10 10 11 11 11 11 12 9 11 8 4 8 4 2 5 5 5 5 4 6 6 5 5 4 3 5 3 5 2 3 6 5 6 6 8 11 6 3 6 5 3 4 4
23 20 17 16 15 15 14 12 12 10 10 11 10 10 11 10 10 10 5 12 11 4 6 13 13 15 13 10 8 4 5 2 4 3 2 2 5 3 4 5 4 5 4 6 3 5 3 5 5 2 2 2 3 6
19 17 16 15 14 13 13 12 12 11 10 10 10 9 9 9 9 9 10 12 11 5 8 4 2 1 4 5 10 5 3 4 4 3 6 3 6 3 7 5 6 5 5 7 5 4 3 8 7 7 7 7 11 13
17 16 15 15 14 14 12 11 12 11 11 11 11 9 9 7 8 9 9 9 6 4 5 2 4 6 8 8 12 14 8 5 4 4 6 4 5 1 4 5 7 9 2 6 11 15 15 14 9 12 13 14 18 19
17 16 14 14 14 13 11 11 11 11 11 13 12 10 8 6 6 7 7 4 5 3 6 10 13 3 3 4 7 13 14 12 6 6 6 5 3 3 9 5 10 11 8 9 9 10 11 16 17 11 16 18 15 14
18 15 15 14 12 11 11 11 11 11 12 12 12 10 7 5 4 5 2 2 3 8 5 3 3 3 4 7 7 9 10 14 11 7 6 5 5 6 5 8 5 6 7 12 18 19 19 17 15 15 13 13 17 19
17 17 16 14 12 11 11 10 10 11 11 12 11 9 7 5 3 2 2 4 8 7 3 6 3 3 3 2 3 7 9 8 9 10 9 12 10 7 8 12 18 19 16 8 7 7 10 10 10 13 17 20 20 22
16 17 16 14 13 12 11 10 10 10 10 9 9 8 5 4 4 3 6 4 2 1 3 4 3 4 2 3 5 5 6 9 9 10 6 9 4 7 6 9 6 5 4 6 7 7 10 14 17 19 19 20 22 24
15 15 15 15 14 13 12 10 10 9 8 7 5 2 2 3 2 5 4 4 4 3 4 3 3 2 3 2 2 5 6 6 5 8 10 4 7 6 6 9 8 6 8 12 8 11 14 17 19 21 22 24 25 26
13 13 13 14 14 13 12 10 10 8 5 3 2 1 3 3 4 2 2 2 2 4 6 6 3 3 3 1 3 3 5 4 3 3 1 5 8 10 6 6 7 9 9 7 11 15 19 22 22 23 25 26 26 28
14 13 12 14 13 12 11 10 8 7 6 5 3 2 3 4 2 2 3 4 4 4 6 6 8 4 2 4 2 1 2 1 3 4 3 3 3 6 3 1 2 3 6 10 13 17 21 23 25 27 28 27 28 29
10 10 11 12 12 12 11 10 12 11 6 6 5 5 5 3 4 4 3 3 4 4 6 5 4 6 2 2 5 4 3 3 3 2 3 3 4 3 1 3 5 7 9 13 16 20 22 23 25 26 28 29 29 29
11 10 11 12 12 12 12 14 16 12 6 6 3 2 4 4 2 6 6 4 3 6 7 8 6 4 5 5 5 3 4 3 1 4 3 2 6 2 4 5 8 10 12 17 22 23 23 23 24 24 27 28 28 27
8 9 11 12 12 13 15 19 16 13 6 4 4 2 5 5 5 5 5 1 3 4 2 4 4 4 4 4 3 4 1 3 3 4 3 5 6 7 7 9 12 16 19 22 23 22 22 22 23 26 25 30 30 27
5 6 9 13 15 14 17 20 18 16 7 5 5 4 7 7 3 3 5 5 5 4 4 3 5 4 4 3 3 3 3 4 4 1 3 6 9 9 10 13 16 19 20 20 20 21 21 23 26 27 27 28 24 24
4 6 9 10 13 16 21 19 14 13 4 4 5 4 7 6 9 9 8 7 6 4 3 6 3 3 5 3 5 6 3 5 1 2 4 5 9 11 12 15 16 16 18 20 19 19 21 24 25 28 29 26 23 20
6 4 3 10 14 17 20 16 14 7 5 4 6 12 11 6 5 3 6 7 7 7 5 4 5 6 0 4 4 4 3 2 3 3 3 6 9 12 14 16 14 17 17 16 18 20 22 24 24 26 27 26 24 19
8 6 9 11 16 16 15 10 8 6 5 6 7 13 12 11 10 9 6 7 7 11 9 4 5 5 4 5 4 1 2 1 4 6 8 10 11 12 14 13 14 15 15 16 18 20 21 23 24 25 28 25 18 7
9 10 12 11 18 11 8 7 5 4 10 6 16 12 10 13 13 12 10 10 11 10 7 4 6 7 9 13 13 12 9 7 7 8 10 11 10 14 15 13 14 14 15 17 18 19 21 19 20 22 24 17 11 9
12 12 14 13 23 6 5 4 8 4 5 8 12 15 16 16 15 16 17 18 17 16 11 7 11 19 14 12 9 10 6 3 6 11 13 13 14 16 13 13 14 12 14 16 17 19 20 20 18 19 17 11 11 12
9 11 12 21 23 4 5 5 6 5 5 7 9 12 12 12 16 17 18 16 17 20 19 28 28 26 24 24 21 18 15 11 14 15 16 16 16 14 11 11 10 11 11 13 14 18 19 19 16 15 16 14 10 10
13 12 17 15 4 5 3 7 3 2 3 7 6 9 10 15 16 16 13 15 18 24 27 26 24 24 23 23 23 23 22 20 16 13 13 12 11 8 6 8 9 8 9 11 15 18 19 19 19 20 21 20 18 16
14 11 8 6 4 6 4 8 5 4 3 4 4 4 5 5 6 7 6 12 15 17 17 18 19 19 19 18 17 16 15 15 13 11 10 8 3 2 5 7 8 9 11 13 13 12 18 23 27 31 30 30 32 32
12 4 4 6 5 6 4 4 5 5 4 4 3 4 4 4 6 4 4 7 11 7 9 9 8 8 8 10 12 11 10 10 10 8 6 6 6 5 6 9 10 12 12 13 14 15 14 16 17 20 23 28 34 38
5 5 4 5 5 4 4 3 4 5 4 8 4 2 2 4 3 4 5 2 2 3 6 6 4 5 5 9 9 9 9 8 10 11 10 9 9 10 11 11 11 10 10 12 14 14 14 16 19 20 20 21 22 24
4 7 5 9 6 4 5 3 6 6 2 2 4 6 6 4 2 3 3 4 7 5 4 6 6 6 7 9 11 13 15 19 19 18 15 10 8 10 10 10 10 9 9 10 11 13 15 16 17 19 21 22 23 23
3 5 6 6 5 4 5 3 1 2 5 5 3 1 2 1 2 3 5 5 7 11 13 4 11 15 20 21 20 23 17 12 10 13 12 10 9 9 9 10 10 9 9 9 10 11 14 16 17 19 20 21 22 22
3 1 3 8 5 3 3 4 4 3 2 4 5 1 2 4 2 13 15 14 12 14 22 27 26 26 23 19 15 14 13 15 14 12 11 10 10 10 10 10 9 10 8 9 10 10 11 13 14 16 17 17 17 17
3 3 2 2 5 6 4 2 2 2 2 1 3 2 5 12 16 11 10 8 7 8 14 14 13 12 9 10 11 11 12 12 13 11 12 12 11 10 9 8 7 7 7 8 10 10 10 10 10 11 11 12 12 12
2 4 3 3 2 0 1 3 6 8 8 7 4 2 9 12 10 6 4 6 8 11 14 16 17 17 15 13 11 11 10 8 9 9 9 9 10 10 9 8 8 8 9 9 9 9 9 8 8 8 7 7 7 8
1 1 2 2 3 1 3 5 5 4 2 2 3 5 7 7 4 1 1 1 4 7 11 11 11 11 11 11 11 11 10 7 6 5 5 5 8 9 8 8 8 8 7 6 6 5 5 5 6 6 6 6 6 6
1 1 2 2 3 2 1 1 1 3 6 7 6 7 7 6 4 3 1 3 5 7 6 6 7 7 5 5 5 4 4 6 6 6 6 6 6 7 10 12 8 8 8 8 6 4 3 2 2 2 4 4 4 4
4 6 5 4 3 2 2 1 2 4 5 6 6 5 4 3 4 3 3 3 6 4 5 4 4 3 5 5 6 6 5 6 4 4 6 8 10 11 9 8 10 11 8 8 8 8 5 6 4 4 4 2 1 2
Wind_Direction
283 290 288 285 284 281 279 273 278 285 298 311 326 337 351 359 4 11 2 7 20 308 292 242 221 242 258 258 280 44 261 200 238 245 267 199 259 163 258 301 264 252 247 221 243 266 248 30 231 306 48 64 16 360
282 286 281 279 279 279 275 264 266 270 283 297 313 328 338 349 357 2 355 352 346 271 278 279 266 255 244 249 273 240 325 309 343 271 227 297 228 211 311 259 180 252 288 330 286 37 66 343 320 318 319 349 354 324
282 279 277 275 275 274 274 263 256 259 267 281 297 314 326 333 345 350 348 347 358 316 297 297 219 150 102 216 216 264 210 271 249 287 317 319 264 285 262 247 286 217 236 253 302 181 309 319 301 277 263 284 305 300
275 276 274 272 272 272 269 256 250 253 258 268 281 297 308 314 331 339 347 341 4 309 289 102 179 304 271 251 226 223 260 284 254 231 252 268 273 173 285 318 281 293 319 276 272 269 281 285 296 279 275 283 292 291
271 269 268 268 268 269 263 251 248 252 255 264 278 289 294 295 316 330 332 355 65 30 319 296 292 233 259 264 245 235 232 215 219 226 235 248 291 271 250 288 265 260 251 266 283 316 296 294 294 278 294 293 292 295
263 260 260 262 263 261 256 251 250 252 256 264 273 282 280 273 307 349 280 350 1 7 308 294 314 236 273 290 242 212 205 209 226 242 253 253 256 258 264 262 298 258 267 280 284 286 286 285 286 287 288 295 296 294
255 254 255 256 253 251 252 253 254 255 258 261 268 275 261 240 252 224 256 242 306 334 295 285 256 194 308 194 157 178 189 200 221 232 243 259 255 204 265 269 280 280 291 289 293 281 271 267 293 299 295 295 295 293
251 251 250 249 247 247 247 248 251 256 257 255 270 273 241 237 260 280 254 254 291 274 255 273 270 235 351 204 180 182 188 204 212 242 240 252 197 238 265 276 295 267 247 266 281 273 282 294 295 296 296 296 295 293
249 252 243 237 238 240 244 244 243 248 251 255 271 255 240 229 205 231 232 243 246 211 279 241 274 77 331 213 218 192 213 220 166 240 238 257 245 223 265 297 270 269 270 296 291 291 298 299 300 298 296 296 295 295
245 246 238 229 231 234 238 237 232 225 222 212 187 176 199 203 188 193 331 193 223 214 228 253 250 248 300 248 201 250 205 256 251 161 134 237 257 275 300 298 279 269 268 276 294 302 307 303 303 301 298 297 294 294
240 241 231 223 223 225 226 225 209 171 178 177 183 185 210 170 155 222 230 228 169 234 222 238 238 258 186 275 267 224 293 224 256 118 262 223 219 121 127 119 353 315 289 289 294 298 299 298 299 301 301 299 296 294
224 220 222 215 218 217 213 202 177 175 184 185 172 164 174 200 213 234 215 179 215 244 190 218 180 214 214 217 243 191 251 201 256 89 238 245 109 102 304 0 333 312 298 296 302 304 303 300 301 302 301 300 298 295
223 225 216 210 211 209 200 188 175 185 182 158 191 177 196 178 230 222 198 192 208 202 197 195 193 213 193 220 239 229 226 232 69 226 240 42 82 15 348 344 331 321 309 304 304 305 304 303 304 305 304 301 300 294
221 221 211 204 204 200 190 180 178 182 176 186 165 254 224 191 230 209 225 204 141 192 155 246 237 226 197 189 247 243 178 244 241 234 217 91 14 344 338 327 317 313 312 311 310 309 308 309 310 309 305 305 310 303
223 231 214 209 197 188 182 178 181 190 192 191 188 226 221 240 252 229 234 220 200 215 275 259 244 246 180 241 222 238 209 249 240 239 67 28 360 344 331 325 317 315 316 316 316 314 315 314 313 312 312 312 310 310
221 236 236 209 189 179 177 178 182 191 216 218 228 251 236 251 237 221 229 233 212 222 231 223 259 229 225 237 207 204 241 216 104 84 49 13 359 344 329 325 323 321 320 318 318 319 319 316 314 313 312 318 318 309
222 208 208 182 174 178 180 175 183 192 217 213 231 238 253 287 281 294 240 225 198 205 232 208 225 209 81 237 222 210 265 77 65 60 21 358 343 333 331 326 325 325 325 327 329 327 323 322 322 326 324 322 322 308
213 181 163 163 169 171 176 175 182 211 222 216 225 220 223 237 253 253 240 218 217 227 236 245 291 224 228 234 249 327 82 126 30 6 343 337 332 332 330 322 325 326 326 330 330 329 328 333 338 338 338 338 339 345
205 194 185 184 177 159 163 193 194 218 222 222 230 244 239 245 246 249 247 232 234 242 246 244 247 239 241 252 275 280 264 263 287 322 326 329 328 326 326 323 324 321 330 334 336 333 328 336 343 345 347 6 22 23
211 198 192 180 173 157 183 186 177 226 228 222 232 240 239 246 252 246 244 239 228 224 220 227 241 248 251 258 261 278 284 213 291 307 315 323 324 325 322 323 322 334 343 343 340 342 351 354 357 351 352 11 29 35
209 201 191 174 191 198 194 185 196 217 247 241 241 235 246 239 240 240 239 231 221 224 238 244 252 255 255 257 255 248 259 269 288 293 300 308 312 315 322 328 345 357 359 6 28 21 18 13 10 16 28 27 34 32
183 177 165 163 150 197 240 214 223 212 236 263 258 224 256 240 235 242 239 227 233 239 239 250 256 258 256 252 249 250 258 263 266 268 280 295 305 315 336 5 3 15 35 37 35 39 36 43 53 60 60 52 50 56
171 155 124 155 183 199 258 192 186 200 244 255 230 234 225 225 219 182 224 226 245 247 246 249 255 255 254 248 247 247 243 242 240 252 260 277 275 47 38 41 50 53 54 41 43 42 40 57 63 67 71 73 73 71
153 123 147 184 211 201 187 192 211 204 214 240 241 247 219 217 157 224 250 234 230 217 226 251 256 258 241 215 214 212 211 214 220 223 229 167 127 99 96 88 80 70 67 64 56 50 51 46 45 49 55 63 71 76
160 194 192 206 199 222 201 200 199 217 235 219 245 259 261 182 213 229 235 196 196 270 272 235 214 188 211 186 175 180 190 187 171 149 128 123 117 112 108 105 95 80 74 65 55 52 53 57 59 62 64 64 67 69
220 198 212 189 168 211 204 223 205 216 262 268 210 214 217 224 292 294 341 351 333 321 293 244 198 190 167 161 148 140 131 146 140 127 117 117 128 126 124 118 106 92 75 64 62 63 65 65 70 68 67 67 70 73
218 193 196 207 212 219 248 231 105 208 229 214 236 24 37 70 268 261 282 132 96 60 37 93 153 148 135 134 134 136 121 124 121 125 125 133 131 124 127 121 110 95 81 78 75 79 81 76 74 74 75 75 75 76
264 250 213 172 194 216 251 238 210 226 289 2 349 155 219 217 39 114 116 110 91 86 76 77 116 122 121 124 128 125 125 124 122 118 115 115 125 127 124 120 116 103 99 96 87 90 91 87 82 79 77 77 78 78
242 205 204 175 218 222 236 307 39 6 323 250 253 330 71 112 140 130 115 90 64 70 95 116 136 141 137 134 132 132 135 135 133 132 121 119 127 137 137 132 110 103 108 109 109 110 104 100 92 85 81 79 77 77
175 199 265 276 245 90 100 245 238 256 256 258 311 89 123 132 128 123 75 60 71 80 99 105 113 116 126 134 142 147 151 156 167 156 153 145 142 145 148 145 134 123 121 122 125 125 117 93 82 74 77 77 80 84
358 297 276 293 287 259 217 275 264 256 242 188 161 141 129 129 142 167 31 84 113 118 116 112 119 120 123 127 130 142 143 155 164 159 145 147 158 165 166 165 169 160 142 139 137 129 124 103 85 84 80 75 80 80
340 292 314 298 290 302 280 247 234 152 150 148 144 145 144 140 136 114 55 142 153 153 144 133 139 132 131 122 132 137 131 147 180 194 201 193 180 190 194 195 201 190 184 169 185 194 181 147 124 105 95 80 81 87
240 240 228 240 231 223 188 241 161 130 133 134 121 132 122 106 101 92 60 161 168 170 179 179 169 161 174 157 161 150 168 192 221 220 232 221 230 216 202 207 216 218 213 219 226 211 243 240 225 222 217 168 131 130